This demonstration page uses our WeatherBlox Daily Observations layout. Learn more.

Left ArrowRight Arrow

38.80484, -77.04692

Hourly Observations for May 5, 2021

Temp ( °F °C ) Dew Point ( °F °C ) Humidity (%) Winds ( mph kmh ) Pressure ( in mb ) Visibility ( mi km ) Precip ( " mm )
12:52 am 00:52 Mostly Cloudy 66 18.9 63 17.2 90 90 SSW 5 7 29.72 1006 10 16 N/A
1:52 am 01:52 Mostly Clear 66 18.9 63 17.2 90 90 S 8 13 29.71 1006 10 16 N/A
2:52 am 02:52 Partly Cloudy 65 18.3 63 17.2 93 93 SSW 5 7 29.70 1006 10 16 N/A
3:52 am 03:52 Partly Cloudy 65 18.3 62 16.7 90 90 N N/A 29.68 1005 10 16 N/A
4:52 am 04:52 Mostly Cloudy 65 18.3 63 17.2 93 93 SSW 5 7 29.69 1006 10 16 N/A
5:35 am 05:35 Cloudy 65 18.3 63 17.2 93 93 S 6 9 29.68 1005 10 16 N/A
5:52 am 05:52 Cloudy 66 18.9 63 17.2 90 90 S 5 7 29.67 1005 10 16 N/A
6:52 am 06:52 Cloudy 66 18.9 63 17.2 90 90 SSW 7 11 29.70 1006 10 16 N/A
7:39 am 07:39 Cloudy with Rain 66 18.9 64 17.8 93 93 N N/A 29.71 1006 4 6 0.01 0.25
7:52 am 07:52 Cloudy with Light Rain 66 18.9 64 17.8 93 93 N N/A 29.71 1006 6 10 0.02 0.51
8:52 am 08:52 Cloudy with Light Rain 66 18.9 64 17.8 93 93 W 3 6 29.71 1006 7 11 0.01 0.25
9:49 am 09:49 Cloudy with Light Rain 66 19 64 18 94 94 SE 5 7 29.71 1006 6 10 0.01 0.25
9:52 am 09:52 Cloudy with Light Rain 67 19.4 65 18.3 93 93 SE 6 9 29.70 1006 7 11 0.01 0.25
10:52 am 10:52 Cloudy 68 20 65 18.3 90 90 S 3 6 29.70 1006 10 16 0.00 0.00
11:52 am 11:52 Mostly Cloudy 69 20.6 66 18.9 90 90 SSE 6 9 29.69 1006 10 16 N/A
12:04 pm 12:04 Mostly Cloudy 70 21.1 67 19.4 90 90 SSE 7 11 29.70 1006 10 16 N/A
12:38 pm 12:38 Mostly Cloudy 75 23.9 68 20 79 79 VRB 5 7 29.69 1005 10 16 N/A
12:52 pm 12:52 Mostly Cloudy 77 25 62 16.7 60 60 NW 12 19 29.68 1005 10 16 N/A
1:08 pm 13:08 Mostly Cloudy 78 25.6 61 16.1 56 56 NW 8 13 29.68 1005 10 16 N/A
1:52 pm 13:52 Partly Cloudy 79 26.1 63 17.2 58 58 N 12 19 29.68 1005 10 16 N/A
2:35 pm 14:35 Mostly Cloudy with Light Rain 76 24.4 61 16.1 60 60 NW 15 24 29.70 1006 8 13 0.00 0.00
2:52 pm 14:52 Cloudy with Light Rain 72 22.2 62 16.7 71 71 WNW 16 26 29.71 1006 8 13 0.02 0.51
3:52 pm 15:52 Mostly Cloudy 74 23.3 62 16.7 67 67 NW 14 22 29.72 1006 10 16 0.00 0.00
4:52 pm 16:52 Mostly Cloudy 75 23.9 56 13.3 52 52 NW 17 28 29.74 1007 10 16 N/A
5:52 pm 17:52 Mostly Cloudy 72 22.2 53 11.7 52 52 WNW 20 31 29.78 1008 10 16 N/A
6:52 pm 18:52 Partly Cloudy 68 20 48 8.9 49 49 NW 24 39 29.82 1010 10 16 N/A
7:52 pm 19:52 Partly Cloudy 64 17.8 46 7.8 52 52 NW 22 35 29.86 1011 10 16 N/A
8:52 pm 20:52 Partly Cloudy 61 16.1 44 6.7 54 54 NNW 18 30 29.91 1013 10 16 N/A
9:52 pm 21:52 Partly Cloudy 60 15.6 42 5.6 52 52 NW 20 31 29.94 1014 10 16 N/A
10:52 pm 22:52 Partly Cloudy 58 14.4 41 5 53 53 NW 10 17 29.96 1015 10 16 N/A
11:52 pm 23:52 Clear 56 13.3 41 5 57 57 NNW 12 19 29.97 1015 10 16 N/A

Powered by AerisWeather